Location: *
(28.3744°N, 81.5492°W)
Time: 03:23:20
(UTC+00:00)

ISS - Pass Details

Date: 15 June 2025
Orbit: 413 x 417 km, 51.6° (Epoch: 11 July)

Event Time Altitude Azimuth Distance (km) Brightness Sun altitude
Exits shadow 09:30:32 - 178° (S) 1,907 -0.7 -11.8°
Reaches altitude 10° 09:32:01 10° 161° (SSE) 1,482 -1.1 -11.5°
Maximum altitude 09:33:58 15° 125° (SE) 1,233 -1.1 -11.2°
Drops below altitude 10° 09:35:55 10° 90° (E) 1,489 0.0 -10.8°
Sets 09:38:41 0° 65° (ENE) 2,357 2.1 -10.3°
